(°C)
-1°
-1°
-1°
-1°
(°C)
-3°
-3°
-4°
-4°
-4°
-4°
-3°
NNE
NNE
N
N
N
N
N
(km/h)
4-9
3-10
3-12
3-14
4-15
5-16
4-16
(mm)
0
0
0
0
0
0
0
(%)
0
0
0
0
0
0
0

Elevación del sol

/ -35.1°
sun-icon
UV 2
07:09
19:02
Gibosa menguante (264°)
21:51
15:29

METAR a 55.27°N 86.11°E (UNEE)

Hora Condiciones Temperatura/
Punto de condensación
Viento Visibilidad Tiempo Nubes Presión Cambiar Bruto
VFR 0°C / 0°C variable 0kt >10km - Clouds and Visibility OK 1022 No Significant change UNEE 271900Z 00000MPS CAVOK 00/M00 Q1022 R23/CLRD60 NOSIG RMK QFE743
VFR 0°C / 0°C variable 0kt >10km - Clouds and Visibility OK 1022 No Significant change UNEE 271830Z 00000MPS CAVOK M00/M00 Q1022 R23/CLRD60 NOSIG RMK QFE743
VFR 0°C / 0°C variable 0kt >10km - Clouds and Visibility OK 1022 No Significant change UNEE 271800Z 00000MPS CAVOK 00/M00 Q1022 R23/CLRD60 NOSIG RMK QFE744
VFR 0°C / 0°C 150º 4kt >10km - Clouds and Visibility OK 1023 No Significant change UNEE 271730Z 15002MPS CAVOK 00/M00 Q1023 R23/CLRD60 NOSIG RMK QFE744
VFR 0°C / 0°C 170º 2kt 9000m - Clear 1023 No Significant change UNEE 271700Z 17001MPS 9000 NSC 00/M00 Q1023 R23/CLRD60 NOSIG RMK QFE744
VFR 1°C / 0°C 140º 2kt >10km - Clear 1023 No Significant change UNEE 271630Z 14001MPS 9999 NSC 01/M00 Q1023 R23/CLRD60 NOSIG RMK QFE744
VFR 0°C / 0°C 90º 2kt >10km - Few Clouds 4900ft 1023 No Significant change UNEE 271600Z 09001MPS 9999 FEW049 00/M00 Q1023 R23/CLRD60 NOSIG RMK QFE744
VFR 1°C / 0°C 100º 2kt >10km - Scattered Clouds 4900ft 1023 No Significant change UNEE 271530Z 10001MPS 9999 SCT049 01/00 Q1023 R23/CLRD60 NOSIG RMK QFE744
VFR 1°C / 0°C 100º 2kt >10km - Scattered Clouds 4900ft 1024 No Significant change UNEE 271500Z 10001MPS 9999 SCT049 01/00 Q1024 R23/CLRD60 NOSIG RMK QFE745
VFR 2°C / 0°C 160º 4kt >10km - Scattered Clouds 4300ft 1024 No Significant change UNEE 271430Z 16002MPS 9999 SCT043 02/00 Q1024 R23/CLRD60 NOSIG RMK QFE745
VFR 2°C / 0°C 170º 4kt >10km - Scattered Clouds 4300ft 1024 No Significant change UNEE 271400Z 17002MPS 9999 SCT043 02/00 Q1024 R23/CLRD60 NOSIG RMK QFE745
VFR 2°C / 0°C 180º 4kt >10km - Scattered Clouds 4300ft 1024 No Significant change UNEE 271330Z 18002MPS 9999 SCT043 02/00 Q1024 R23/CLRD60 NOSIG RMK QFE745
VFR 2°C / 0°C 160º 4kt >10km - Scattered Clouds 4300ft 1024 No Significant change UNEE 271300Z 16002MPS 9999 SCT043 02/00 Q1024 R23/CLRD60 NOSIG RMK QFE745
VFR 2°C / 1°C 180º 4kt >10km - Scattered Clouds 1800ft 1025 No Significant change UNEE 271230Z 18002MPS 9999 SCT018CB BKN043 02/01 Q1025 R23/CLRD60 NOSIG RMK QFE745
VFR 2°C / 0°C 150º 4kt >10km - Scattered Clouds 4400ft 1024 No Significant change UNEE 271200Z 15002MPS 9999 SCT044 02/00 Q1024 R23/CLRD60 NOSIG RMK QFE745
VFR 3°C / 1°C 140º 4kt >10km - Clouds and Visibility OK 1024 No Significant change UNEE 271130Z 14002MPS CAVOK 03/01 Q1024 R23/CLRD60 NOSIG RMK QFE745
VFR 3°C / 0°C 150º 4kt >10km - Clouds and Visibility OK 1024 No Significant change UNEE 271100Z 15002MPS CAVOK 03/00 Q1024 R23/CLRD60 NOSIG RMK QFE745
VFR 4°C / 1°C 130º 6kt >10km - Clouds and Visibility OK 1024 No Significant change UNEE 271030Z 13003MPS CAVOK 04/01 Q1024 R23/CLRD60 NOSIG RMK QFE745
VFR 4°C / 1°C 150º 4kt >10km - Clouds and Visibility OK 1024 No Significant change UNEE 271000Z 15002MPS CAVOK 04/01 Q1024 R23/CLRD60 NOSIG RMK QFE745
VFR 4°C / 1°C 150º 4kt >10km - Clouds and Visibility OK 1024 No Significant change UNEE 270930Z 15002MPS CAVOK 04/01 Q1024 R23/CLRD60 NOSIG RMK QFE745
VFR 5°C / 1°C 150º variable 100º to 190º 4kt >10km - Scattered Clouds 1300ft 1024 No Significant change UNEE 270900Z 15002MPS 100V190 9999 SCT013 05/01 Q1024 R23/CLRD60 NOSIG RMK QFE745
VFR 4°C / 1°C 180º 4kt >10km - Scattered Clouds 1300ft 1024 No Significant change UNEE 270830Z 18002MPS 9999 SCT013 04/01 Q1024 R23/CLRD60 NOSIG RMK QFE745
MVFR 4°C / 0°C 120º 2kt >10km - Broken Clouds 1300ft 1023 No Significant change UNEE 270800Z 12001MPS 9999 BKN013 04/00 Q1023 R23/CLRD60 NOSIG RMK QFE744
MVFR 4°C / 0°C 350º 2kt >10km - Broken Clouds 1300ft 1023 No Significant change UNEE 270730Z 35001MPS 9999 BKN013 04/00 Q1023 R23/CLRD60 NOSIG RMK QFE744

VFR

0°C / 0°C

[Más]
Viento variable 0kt
Visibilidad >10km
Tiempo -
Nubes Clouds and Visibility OK
Presión 1022
Cambiar No Significant change
Bruto UNEE 271900Z 00000MPS CAVOK 00/M00 Q1022 R23/CLRD60 NOSIG RMK QFE743

VFR

0°C / 0°C

[Más]
Viento variable 0kt
Visibilidad >10km
Tiempo -
Nubes Clouds and Visibility OK
Presión 1022
Cambiar No Significant change
Bruto UNEE 271830Z 00000MPS CAVOK M00/M00 Q1022 R23/CLRD60 NOSIG RMK QFE743

VFR

0°C / 0°C

[Más]
Viento variable 0kt
Visibilidad >10km
Tiempo -
Nubes Clouds and Visibility OK
Presión 1022
Cambiar No Significant change
Bruto UNEE 271800Z 00000MPS CAVOK 00/M00 Q1022 R23/CLRD60 NOSIG RMK QFE744

VFR

0°C / 0°C

[Más]
Viento 150º 4kt
Visibilidad >10km
Tiempo -
Nubes Clouds and Visibility OK
Presión 1023
Cambiar No Significant change
Bruto UNEE 271730Z 15002MPS CAVOK 00/M00 Q1023 R23/CLRD60 NOSIG RMK QFE744

VFR

0°C / 0°C

[Más]
Viento 170º 2kt
Visibilidad 9000m
Tiempo -
Nubes Clear
Presión 1023
Cambiar No Significant change
Bruto UNEE 271700Z 17001MPS 9000 NSC 00/M00 Q1023 R23/CLRD60 NOSIG RMK QFE744

VFR

1°C / 0°C

[Más]
Viento 140º 2kt
Visibilidad >10km
Tiempo -
Nubes Clear
Presión 1023
Cambiar No Significant change
Bruto UNEE 271630Z 14001MPS 9999 NSC 01/M00 Q1023 R23/CLRD60 NOSIG RMK QFE744

VFR

0°C / 0°C

[Más]
Viento 90º 2kt
Visibilidad >10km
Tiempo -
Nubes Few Clouds 4900ft
Presión 1023
Cambiar No Significant change
Bruto UNEE 271600Z 09001MPS 9999 FEW049 00/M00 Q1023 R23/CLRD60 NOSIG RMK QFE744

VFR

1°C / 0°C

[Más]
Viento 100º 2kt
Visibilidad >10km
Tiempo -
Nubes Scattered Clouds 4900ft
Presión 1023
Cambiar No Significant change
Bruto UNEE 271530Z 10001MPS 9999 SCT049 01/00 Q1023 R23/CLRD60 NOSIG RMK QFE744

VFR

1°C / 0°C

[Más]
Viento 100º 2kt
Visibilidad >10km
Tiempo -
Nubes Scattered Clouds 4900ft
Presión 1024
Cambiar No Significant change
Bruto UNEE 271500Z 10001MPS 9999 SCT049 01/00 Q1024 R23/CLRD60 NOSIG RMK QFE745

VFR

2°C / 0°C

[Más]
Viento 160º 4kt
Visibilidad >10km
Tiempo -
Nubes Scattered Clouds 4300ft
Presión 1024
Cambiar No Significant change
Bruto UNEE 271430Z 16002MPS 9999 SCT043 02/00 Q1024 R23/CLRD60 NOSIG RMK QFE745

VFR

2°C / 0°C

[Más]
Viento 170º 4kt
Visibilidad >10km
Tiempo -
Nubes Scattered Clouds 4300ft
Presión 1024
Cambiar No Significant change
Bruto UNEE 271400Z 17002MPS 9999 SCT043 02/00 Q1024 R23/CLRD60 NOSIG RMK QFE745

VFR

2°C / 0°C

[Más]
Viento 180º 4kt
Visibilidad >10km
Tiempo -
Nubes Scattered Clouds 4300ft
Presión 1024
Cambiar No Significant change
Bruto UNEE 271330Z 18002MPS 9999 SCT043 02/00 Q1024 R23/CLRD60 NOSIG RMK QFE745

VFR

2°C / 0°C

[Más]
Viento 160º 4kt
Visibilidad >10km
Tiempo -
Nubes Scattered Clouds 4300ft
Presión 1024
Cambiar No Significant change
Bruto UNEE 271300Z 16002MPS 9999 SCT043 02/00 Q1024 R23/CLRD60 NOSIG RMK QFE745

VFR

2°C / 1°C

[Más]
Viento 180º 4kt
Visibilidad >10km
Tiempo -
Nubes Scattered Clouds 1800ft
Presión 1025
Cambiar No Significant change
Bruto UNEE 271230Z 18002MPS 9999 SCT018CB BKN043 02/01 Q1025 R23/CLRD60 NOSIG RMK QFE745

VFR

2°C / 0°C

[Más]
Viento 150º 4kt
Visibilidad >10km
Tiempo -
Nubes Scattered Clouds 4400ft
Presión 1024
Cambiar No Significant change
Bruto UNEE 271200Z 15002MPS 9999 SCT044 02/00 Q1024 R23/CLRD60 NOSIG RMK QFE745

VFR

3°C / 1°C

[Más]
Viento 140º 4kt
Visibilidad >10km
Tiempo -
Nubes Clouds and Visibility OK
Presión 1024
Cambiar No Significant change
Bruto UNEE 271130Z 14002MPS CAVOK 03/01 Q1024 R23/CLRD60 NOSIG RMK QFE745

VFR

3°C / 0°C

[Más]
Viento 150º 4kt
Visibilidad >10km
Tiempo -
Nubes Clouds and Visibility OK
Presión 1024
Cambiar No Significant change
Bruto UNEE 271100Z 15002MPS CAVOK 03/00 Q1024 R23/CLRD60 NOSIG RMK QFE745

VFR

4°C / 1°C

[Más]
Viento 130º 6kt
Visibilidad >10km
Tiempo -
Nubes Clouds and Visibility OK
Presión 1024
Cambiar No Significant change
Bruto UNEE 271030Z 13003MPS CAVOK 04/01 Q1024 R23/CLRD60 NOSIG RMK QFE745

VFR

4°C / 1°C

[Más]
Viento 150º 4kt
Visibilidad >10km
Tiempo -
Nubes Clouds and Visibility OK
Presión 1024
Cambiar No Significant change
Bruto UNEE 271000Z 15002MPS CAVOK 04/01 Q1024 R23/CLRD60 NOSIG RMK QFE745

VFR

4°C / 1°C

[Más]
Viento 150º 4kt
Visibilidad >10km
Tiempo -
Nubes Clouds and Visibility OK
Presión 1024
Cambiar No Significant change
Bruto UNEE 270930Z 15002MPS CAVOK 04/01 Q1024 R23/CLRD60 NOSIG RMK QFE745

VFR

5°C / 1°C

[Más]
Viento 150º variable 100º to 190º 4kt
Visibilidad >10km
Tiempo -
Nubes Scattered Clouds 1300ft
Presión 1024
Cambiar No Significant change
Bruto UNEE 270900Z 15002MPS 100V190 9999 SCT013 05/01 Q1024 R23/CLRD60 NOSIG RMK QFE745

VFR

4°C / 1°C

[Más]
Viento 180º 4kt
Visibilidad >10km
Tiempo -
Nubes Scattered Clouds 1300ft
Presión 1024
Cambiar No Significant change
Bruto UNEE 270830Z 18002MPS 9999 SCT013 04/01 Q1024 R23/CLRD60 NOSIG RMK QFE745

MVFR

4°C / 0°C

[Más]
Viento 120º 2kt
Visibilidad >10km
Tiempo -
Nubes Broken Clouds 1300ft
Presión 1023
Cambiar No Significant change
Bruto UNEE 270800Z 12001MPS 9999 BKN013 04/00 Q1023 R23/CLRD60 NOSIG RMK QFE744

MVFR

4°C / 0°C

[Más]
Viento 350º 2kt
Visibilidad >10km
Tiempo -
Nubes Broken Clouds 1300ft
Presión 1023
Cambiar No Significant change
Bruto UNEE 270730Z 35001MPS 9999 BKN013 04/00 Q1023 R23/CLRD60 NOSIG RMK QFE744

TAF a 55.27°N 86.11°E (UNEE)

From till


From till Wind 30º 6kt. Visibility 8000m. Scattered Clouds 4000ft.
Temporarly from till Visibility 144.841m. freezing Fog . Broken Clouds 100ft.

Bruto: TAF UNEE 271700Z 2718/2818 03003MPS 8000 SCT040 TEMPO 2718/2803 0150 FZFG BKN001

Imágenes actuales de satélite y lluvia para 55.27°N 86.11°E

El marcador de lugar se coloca en 55.27°N 86.11°E. [Más]

La imagen de satélite en tiempo real se aprovecha de la combinación de bandas de la luz visible y de la luz infrarrojo. Como se puede detectar cambios de temperaturas atreves de la banda infrarrojo, la imagen no está escura de noche. No obstante, la niebla y las nubes bajas son apenas visibles en las imágenes infrarrojo como las diferencias de temperaturas entre el suelo y la niebla son muy pequeñas. Por eso son casi invisibles durante la noche. Las imágenes de satélite del Meteosat (Europa) son actualizados en tiempo real cada 5 minutos. Las imágenes del GOES-16/GOES-17 (América del Norte y América del Sur) y Himawari (Asia) son actualizados cada 10 minutos.

Copyright 2021 EUMETSAT / meteoblue. / Copyright 2021 meteoblue

Radar y precipitación nowcast para 55.27°N 86.11°E

llovizna
Leve
Moderado
Fuerte
Muy fuerte
Granizo

El marcador de lugar se coloca en 55.27°N 86.11°E. Esta animación muestra lo radar de precipitaciones hasta la última hora, así como la 1h previsión. Las lloviznas o las nevadas ligeras pueden ser invisibles para el radar. La intensidad de la precipitación está codificada por colores, que van del azul claro al naranja.